Sigfox identifier Datetime Temperature Humidity SNR
0039E154 2019-02-20 14:00:18 20.8 21 23.7
0039E154 2019-02-20 13:28:56 20.8 23 23.7
0039E154 2019-02-20 12:57:32 20.8 23 23
0039E154 2019-02-20 12:26:07 20.8 24 23
0039E154 2019-02-20 11:54:43 20.8 25 23
0039E154 2019-02-20 11:23:19 20.8 26 22.1
0039E154 2019-02-20 10:51:57 20.8 27 22.1
0039E154 2019-02-20 10:20:30 20.7 27 22.2
0039E154 2019-02-20 09:49:05 20.7 27 22.3
0039E154 2019-02-20 09:16:59 20.7 27 21.3
0039E154 2019-02-20 08:45:34 20.6 27 19.9
0039E154 2019-02-20 08:14:11 20.6 27 19.8
0039E154 2019-02-20 07:42:50 20.6 28 19.7
0039E154 2019-02-20 07:11:24 20.6 28 19.5
0039E154 2019-02-20 06:40:03 20.6 28 19
0039E154 2019-02-20 06:08:39 20.6 28 18.9
0039E154 2019-02-20 05:37:16 20.7 28 18.5
0039E154 2019-02-20 05:05:53 20.7 28 18.8
0039E154 2019-02-20 04:34:30 20.7 28 18.9
0039E154 2019-02-20 04:03:06 20.7 28 19
0039E154 2019-02-20 03:31:42 20.7 28 18.7
0039E154 2019-02-20 03:00:20 20.7 28 18.6
0039E154 2019-02-20 02:28:55 20.7 28 18.6
0039E154 2019-02-20 01:57:33 20.7 28 18.5
0039E154 2019-02-20 01:26:11 20.7 28 18.6
0039E154 2019-02-20 00:54:49 20.7 28 18.5
0039E154 2019-02-20 00:23:26 20.7 28 18.3
0039E154 2019-02-19 23:52:03 20.7 27 18.2
0039E154 2019-02-19 23:20:42 20.7 27 18
0039E154 2019-02-19 22:49:18 20.7 27 17.8
0039E154 2019-02-19 22:17:52 20.8 27 20
0039E154 2019-02-19 21:46:29 20.7 27 19.9
0039E154 2019-02-19 21:15:06 20.8 27 19.6
0039E154 2019-02-19 20:43:43 20.8 27 19.5
0039E154 2019-02-19 20:12:19 20.8 28 19.3
0039E154 2019-02-19 19:40:56 20.8 28 19.2
0039E154 2019-02-19 19:09:37 20.9 28 20.9
0039E154 2019-02-19 18:38:09 20.9 28 20.9
0039E154 2019-02-19 18:06:44 20.9 28 20.8
0039E154 2019-02-19 17:35:19 21 28 20.8
0039E154 2019-02-19 17:03:56 21 28 20.9
0039E154 2019-02-19 16:32:32 21 28 20.8
0039E154 2019-02-19 16:01:09 21 28 20.8
0039E154 2019-02-19 15:29:45 20.9 28 20.7
0039E154 2019-02-19 14:58:20 20.9 28 20.6
0039E154 2019-02-19 14:26:56 21 28 20.7
0039E154 2019-02-19 13:55:32 20.9 29 20.8
0039E154 2019-02-19 13:24:08 20.9 28 20.9
0039E154 2019-02-19 12:52:44 20.9 28 21
0039E154 2019-02-19 12:21:21 20.9 28 21.1
0039E154 2019-02-19 11:50:00 20.9 28 21.2
0039E154 2019-02-19 11:18:34 20.9 28 21.2
0039E154 2019-02-19 10:47:12 20.9 27 21.3
0039E154 2019-02-19 10:15:50 20.8 27 21.5
0039E154 2019-02-19 09:44:25 20.8 27 21.7
0039E154 2019-02-19 09:13:02 20.8 27 20.4
0039E154 2019-02-19 08:41:40 20.7 26 20.4
0039E154 2019-02-19 08:10:13 20.7 26 20.6
0039E154 2019-02-19 07:38:50 20.7 25 20.6
0039E154 2019-02-19 07:06:45 20.7 25 20.6
0039E154 2019-02-19 06:35:21 20.7 25 20.7
0039E154 2019-02-19 06:03:57 20.7 25 18.9
0039E154 2019-02-19 05:32:33 20.7 25 19
0039E154 2019-02-19 05:01:07 20.7 25 19
0039E154 2019-02-19 04:29:42 20.7 25 18.9
0039E154 2019-02-19 03:58:18 20.7 25 20.6
0039E154 2019-02-19 03:26:53 20.7 25 20.3
0039E154 2019-02-19 02:55:29 20.7 25 20.3
0039E154 2019-02-19 02:24:05 20.7 24 20.3
0039E154 2019-02-19 01:52:42 20.7 24 20.3
0039E154 2019-02-19 01:21:19 20.7 24 20.2
0039E154 2019-02-19 00:49:56 20.7 24 20.1
0039E154 2019-02-19 00:18:33 20.7 24 20.7
0039E154 2019-02-18 23:47:09 20.7 24 21
0039E154 2019-02-18 23:15:45 20.7 24 21.2
0039E154 2019-02-18 22:44:21 20.7 23 21.4
0039E154 2019-02-18 22:12:57 20.7 23 21.8
0039E154 2019-02-18 21:41:32 20.7 23 22
0039E154 2019-02-18 21:10:08 20.7 23 22.1
0039E154 2019-02-18 20:38:43 20.8 23 22.5
0039E154 2019-02-18 20:07:18 20.8 23 22.8
0039E154 2019-02-18 19:35:54 20.8 23 23.1
0039E154 2019-02-18 19:04:31 20.8 23 23.3
0039E154 2019-02-18 18:33:10 20.8 22 23.8
0039E154 2019-02-18 18:01:45 20.8 22 24
0039E154 2019-02-18 17:30:21 20.8 22 24.2
0039E154 2019-02-18 16:58:57 20.9 22 24.8
0039E154 2019-02-18 16:27:34 20.9 22 25
0039E154 2019-02-18 15:56:12 20.9 22 25.1
0039E154 2019-02-18 15:24:46 20.9 22 25
0039E154 2019-02-18 14:53:23 21 22 25.2
0039E154 2019-02-18 14:22:04 21 21 25.4
0039E154 2019-02-18 13:50:37 21.1 21 25.5
0039E154 2019-02-18 13:19:13 21.1 20 25.7
0039E154 2019-02-18 12:47:50 21.2 20 25.8
0039E154 2019-02-18 12:16:27 21.4 20 25.9
0039E154 2019-02-18 11:45:03 21.4 19 25.8
0039E154 2019-02-18 11:13:39 21.3 19 25.8
0039E154 2019-02-18 10:42:16 21.3 19 25.8
0039E154 2019-02-18 10:10:53 21.2 19 25.9
0039E154 2019-02-18 09:39:30 21.2 19 25.8
0039E154 2019-02-18 09:08:07 21.2 18 26
0039E154 2019-02-18 08:36:43 21.1 18 26.1
0039E154 2019-02-18 08:05:19 21 18 26
0039E154 2019-02-18 07:33:55 20.8 18 26.1
0039E154 2019-02-18 07:02:31 20.6 18 26.1
0039E154 2019-02-18 06:31:07 20.5 18 26.1
0039E154 2019-02-18 05:59:44 20.6 18 26.1
0039E154 2019-02-18 05:28:21 20.7 18 26.1
0039E154 2019-02-18 04:56:17 20.6 18 26.1
0039E154 2019-02-18 04:24:55 20.6 18 26.2
0039E154 2019-02-18 03:53:32 20.5 18 26.2
0039E154 2019-02-18 03:22:08 20.5 18 26.1
0039E154 2019-02-18 02:50:43 20.5 18 26.2
0039E154 2019-02-18 02:19:17 20.6 19 26.1
0039E154 2019-02-18 01:47:54 20.7 18 26.1
0039E154 2019-02-18 01:16:29 20.7 18 26.1
0039E154 2019-02-18 00:45:04 20.7 19 26
0039E154 2019-02-18 00:13:41 20.8 18 26.1
0039E154 2019-02-17 23:42:17 20.7 18 26.1
0039E154 2019-02-17 23:10:53 20.7 19 26.2
0039E154 2019-02-17 22:39:31 20.8 19 26.4
0039E154 2019-02-17 22:08:08 20.8 19 26.4
0039E154 2019-02-17 21:36:44 20.7 19 26.3
0039E154 2019-02-17 21:05:20 20.6 19 26.3
0039E154 2019-02-17 20:33:56 20.7 19 26.4
0039E154 2019-02-17 20:02:33 20.7 19 26.4
0039E154 2019-02-17 19:31:10 20.7 19 26.3
0039E154 2019-02-17 18:59:47 20.8 19 26.3
0039E154 2019-02-17 18:28:24 20.7 20 26.3
0039E154 2019-02-17 17:56:58 20.7 19 26.2
0039E154 2019-02-17 17:25:36 20.8 19 26.1
0039E154 2019-02-17 16:54:12 20.8 19 26
0039E154 2019-02-17 16:22:49 20.7 19 26
0039E154 2019-02-17 15:51:24 20.8 19 26
0039E154 2019-02-17 15:20:01 20.8 20 25.9
0039E154 2019-02-17 14:48:37 20.8 20 25.7
0039E154 2019-02-17 14:17:14 20.8 20 25.8
0039E154 2019-02-17 13:45:51 20.9 20 25.7
0039E154 2019-02-17 13:14:28 21 20 25.6
0039E154 2019-02-17 12:43:06 21 20 25.7
0039E154 2019-02-17 12:11:43 21 20 25.8
0039E154 2019-02-17 11:40:20 20.9 20 25.8
0039E154 2019-02-17 11:08:58 20.9 20 25.9
0039E154 2019-02-17 10:37:34 20.8 20 25.8
0039E154 2019-02-17 10:06:12 20.8 20 25.9
0039E154 2019-02-17 09:34:50 20.8 20 25.7
0039E154 2019-02-17 09:03:26 20.7 21 25.8
0039E154 2019-02-17 08:32:03 20.8 21 25.9
0039E154 2019-02-17 08:00:40 20.9 21 25.9
0039E154 2019-02-17 07:29:16 20.9 21 25.9
0039E154 2019-02-17 06:57:54 20.8 21 25.7
0039E154 2019-02-17 06:26:30 20.9 21 25.7
0039E154 2019-02-17 05:55:07 20.9 21 25.8
0039E154 2019-02-17 05:23:43 20.8 22 25.9
0039E154 2019-02-17 04:52:20 20.9 22 25.9
0039E154 2019-02-17 04:20:56 20.9 22 26.1
0039E154 2019-02-17 03:49:32 20.9 22 26.2
0039E154 2019-02-17 03:18:09 20.9 23 26.3
0039E154 2019-02-17 02:46:05 20.9 23 26.2
0039E154 2019-02-17 02:14:41 20.9 23 26.3
0039E154 2019-02-17 01:43:18 20.9 24 26.4
0039E154 2019-02-17 01:11:54 20.8 24 26.3
0039E154 2019-02-17 00:40:32 20.9 24 26.4
0039E154 2019-02-17 00:09:10 20.9 24 26.4
0039E154 2019-02-16 23:37:47 20.8 25 26.5
0039E154 2019-02-16 23:06:24 20.8 25 26.3
0039E154 2019-02-16 22:34:59 20.9 25 26.4
0039E154 2019-02-16 22:03:36 20.9 25 26.2
0039E154 2019-02-16 21:32:13 21 25 26.3
0039E154 2019-02-16 21:00:50 20.9 25 26.3
0039E154 2019-02-16 20:29:27 20.9 25 26.2
0039E154 2019-02-16 19:58:04 20.9 25 26.2
0039E154 2019-02-16 19:26:41 20.9 25 26.1
0039E154 2019-02-16 18:55:16 20.8 26 26.2
0039E154 2019-02-16 18:23:54 20.7 26 26.2
0039E154 2019-02-16 17:52:30 20.8 25 26.3
0039E154 2019-02-16 17:21:04 20.9 25 26.4
0039E154 2019-02-16 16:49:41 21 25 26.3
0039E154 2019-02-16 16:18:18 21 26 26.4
0039E154 2019-02-16 15:46:54 21.1 25 26.4
0039E154 2019-02-16 15:15:31 21.1 25 26.4
0039E154 2019-02-16 14:44:09 21.1 25 26.2
0039E154 2019-02-16 14:12:45 21.1 25 26.2
0039E154 2019-02-16 13:41:21 21 25 26.3
0039E154 2019-02-16 13:09:59 21 25 26.2
0039E154 2019-02-16 12:38:35 21 25 26.2
0039E154 2019-02-16 12:07:11 21 25 26.3
0039E154 2019-02-16 11:35:48 21 25 26.2
0039E154 2019-02-16 11:04:25 20.8 25 26.2
0039E154 2019-02-16 10:33:02 20.8 26 26.1
0039E154 2019-02-16 10:01:38 20.8 25 26.2
0039E154 2019-02-16 09:30:14 20.8 25 26.2
0039E154 2019-02-16 08:58:51 20.9 26 26.2
0039E154 2019-02-16 08:27:26 20.9 26 26.2
0039E154 2019-02-16 07:56:02 20.8 26 26.2
0039E154 2019-02-16 07:24:38 20.8 26 26.4
0039E154 2019-02-16 06:53:14 20.8 26 26.4
0039E154 2019-02-16 06:21:51 20.8 26 26.5
0039E154 2019-02-16 05:50:28 20.8 26 26.5
0039E154 2019-02-16 05:19:05 20.8 26 26.4
0039E154 2019-02-16 04:47:41 20.8 26 26.3
0039E154 2019-02-16 04:16:18 20.8 26 26.2
0039E154 2019-02-16 03:44:55 20.8 26 26.2
0039E154 2019-02-16 03:13:30 20.8 26 26.2
0039E154 2019-02-16 02:42:07 20.8 26 26.1
0039E154 2019-02-16 02:10:43 20.8 26 26.1
0039E154 2019-02-16 01:39:19 20.9 26 26.4
0039E154 2019-02-16 01:07:58 20.8 26 26.5
0039E154 2019-02-16 00:35:53 20.8 26 26.5
0039E154 2019-02-16 00:04:29 20.8 26 26.6
0039E154 2019-02-15 23:33:06 20.9 26 26.6
0039E154 2019-02-15 23:01:43 20.8 26 26.4
0039E154 2019-02-15 22:30:19 21 26 26.4
0039E154 2019-02-15 21:58:56 21.1 26 26.3
0039E154 2019-02-15 21:27:34 21.1 26 26.3
0039E154 2019-02-15 20:56:09 21.1 26 26.3
0039E154 2019-02-15 20:24:45 21.2 26 26.3
0039E154 2019-02-15 19:53:22 21.4 26 26.3
0039E154 2019-02-15 19:21:58 21.5 25 26.4
0039E154 2019-02-15 18:50:34 21.7 25 26.3
0039E154 2019-02-15 18:19:12 21.7 25 26.3
0039E154 2019-02-15 17:47:49 21.8 25 26.2
0039E154 2019-02-15 17:16:26 21.8 25 26.3
0039E154 2019-02-15 16:45:04 21.7 25 26.2
0039E154 2019-02-15 16:13:42 21.6 24 26.6
0039E154 2019-02-15 15:42:19 21.6 24 26.6
0039E154 2019-02-15 15:10:56 21.7 23 26.7
0039E154 2019-02-15 14:39:33 21.7 23 26.8
0039E154 2019-02-15 14:08:09 21.7 23 26.7
0039E154 2019-02-15 13:36:48 21.7 23 26.7
0039E154 2019-02-15 13:05:26 21.7 24 26.7
0039E154 2019-02-15 12:34:03 21.6 24 26.4
0039E154 2019-02-15 12:02:40 21.6 24 26.3
0039E154 2019-02-15 11:31:18 21.5 24 26.2
0039E154 2019-02-15 10:59:55 21.6 24 26
0039E154 2019-02-15 10:28:32 21.5 25 26
0039E154 2019-02-15 09:57:08 21.5 25 26
0039E154 2019-02-15 09:25:46 21.4 25 26.3
0039E154 2019-02-15 08:54:23 21.4 25 26.6
0039E154 2019-02-15 08:23:01 21.3 25 26.6
0039E154 2019-02-15 07:51:37 21.2 25 26.5
0039E154 2019-02-15 07:20:13 21.1 26 26.6
0039E154 2019-02-15 06:48:48 21 26 26.5
0039E154 2019-02-15 06:17:24 21.1 26 26.5
0039E154 2019-02-15 05:45:59 21.1 26 26.6
0039E154 2019-02-15 05:14:35 21.1 26 26.4
0039E154 2019-02-15 04:43:12 21.1 26 26.3
0039E154 2019-02-15 04:11:49 21 26 26.1
0039E154 2019-02-15 03:40:26 21 26 26
0039E154 2019-02-15 03:09:05 21.1 26 25.7
0039E154 2019-02-15 02:37:42 21.1 26 25.6
0039E154 2019-02-15 02:06:19 21 26 25.4
0039E154 2019-02-15 01:34:57 21 27 25.3
0039E154 2019-02-15 01:03:35 21.1 26 25.2
0039E154 2019-02-15 00:32:13 21.1 26 25.1
0039E154 2019-02-15 00:00:50 21.1 26 24.9
0039E154 2019-02-14 23:29:28 21.1 26 24.8
0039E154 2019-02-14 22:58:04 21.1 26 24.7
0039E154 2019-02-14 22:26:00 21.1 26 24.7
0039E154 2019-02-14 21:54:37 21.1 26 24.6
0039E154 2019-02-14 21:23:15 21.1 25 24.6
0039E154 2019-02-14 20:51:52 21.1 25 24.7
0039E154 2019-02-14 20:20:29 21.3 25 24.1
0039E154 2019-02-14 19:49:05 21.5 24 23.6
0039E154 2019-02-14 19:17:42 21.7 24 23.5
0039E154 2019-02-14 18:46:19 21.8 24 23.4
0039E154 2019-02-14 18:14:56 21.8 24 23.3
0039E154 2019-02-14 17:43:34 21.8 24 23.4
0039E154 2019-02-14 17:12:11 21.9 24 23.2
0039E154 2019-02-14 16:40:47 22 24 23.1
0039E154 2019-02-14 16:09:24 22 24 22.9
0039E154 2019-02-14 15:38:01 22 24 22.9
0039E154 2019-02-14 15:06:38 21.9 24 23
0039E154 2019-02-14 14:35:15 21.8 24 23.2
0039E154 2019-02-14 14:03:52 21.7 24 23.2
0039E154 2019-02-14 13:32:30 21.6 24 23.4
0039E154 2019-02-14 13:01:10 21.5 24 23.7
0039E154 2019-02-14 12:29:44 21.4 23 23.7
0039E154 2019-02-14 11:58:21 21.4 23 24
0039E154 2019-02-14 11:26:57 21.3 24 24
0039E154 2019-02-14 10:55:34 21.1 25 24.2
0039E154 2019-02-14 10:24:11 21 24 24.2
0039E154 2019-02-14 09:52:48 20.9 24 24.3
0039E154 2019-02-14 09:21:27 20.9 24 24.3
0039E154 2019-02-14 08:50:03 20.8 24 24.3
0039E154 2019-02-14 08:18:40 20.8 24 24.3
0039E154 2019-02-14 07:47:16 20.8 25 24.1
0039E154 2019-02-14 07:15:53 20.8 25 24.3
0039E154 2019-02-14 06:44:29 20.9 25 24.3
0039E154 2019-02-14 06:13:06 20.9 25 24.1
0039E154 2019-02-14 05:41:42 20.9 25 24.2
0039E154 2019-02-14 05:10:20 20.9 25 24.1
0039E154 2019-02-14 04:38:58 20.9 25 23.9
0039E154 2019-02-14 04:07:36 20.9 25 23.7
0039E154 2019-02-14 03:36:14 20.9 25 23.6
0039E154 2019-02-14 03:04:52 20.9 25 23.7
0039E154 2019-02-14 02:33:28 20.9 25 23.7
0039E154 2019-02-14 02:02:04 20.9 25 23.6
0039E154 2019-02-14 01:30:41 20.9 25 23.3
0039E154 2019-02-14 00:59:17 20.9 25 23.3
0039E154 2019-02-14 00:27:54 20.9 25 23
0039E154 2019-02-13 23:56:30 20.9 25 22.6
0039E154 2019-02-13 23:25:05 21 25 22.2
0039E154 2019-02-13 22:53:40 21 25 21.9
0039E154 2019-02-13 22:22:17 21 25 21.7
0039E154 2019-02-13 21:50:53 21.1 25 21.4
0039E154 2019-02-13 21:19:29 21.1 25 21.6
0039E154 2019-02-13 20:48:05 21.2 25 21.3
0039E154 2019-02-13 20:15:59 21.3 25 21.2
0039E154 2019-02-13 19:44:35 21.3 25 21.3
0039E154 2019-02-13 19:13:11 21.4 25 21.3
0039E154 2019-02-13 18:41:47 21.4 26 21.3
0039E154 2019-02-13 17:38:56 21.4 26 21.1
0039E154 2019-02-13 17:07:31 21.4 26 21.1
0039E154 2019-02-13 16:36:06 21.4 26 21.2
0039E154 2019-02-13 16:04:42 21.3 26 21.5
0039E154 2019-02-13 15:33:17 21.2 25 21.4
0039E154 2019-02-13 15:01:52 21.2 25 21.6
0039E154 2019-02-13 14:30:27 21.2 25 21.7
0039E154 2019-02-13 13:59:01 21.2 24 21.7
0039E154 2019-02-13 13:27:36 21.2 24 21.5
0039E154 2019-02-13 12:56:11 21.2 25 21.4
0039E154 2019-02-13 12:24:46 21.1 24 21.6
0039E154 2019-02-13 11:53:20 21.1 25 21.5
0039E154 2019-02-13 11:21:55 21 24 21.5
0039E154 2019-02-13 10:50:30 21 24 21.5
0039E154 2019-02-13 10:19:05 20.9 23 21.6
0039E154 2019-02-13 09:47:41 20.9 23 21.6
0039E154 2019-02-13 09:16:18 20.8 22 21.7
0039E154 2019-02-13 08:44:54 20.8 21 22.7
0039E154 2019-02-13 08:13:32 20.8 20 22.8
0039E154 2019-02-13 07:42:08 20.8 19 22.7
0039E154 2019-02-13 07:10:43 20.8 19 22.6
0039E154 2019-02-13 06:39:19 20.8 19 22.6
0039E154 2019-02-13 06:07:55 20.8 19 22.4
0039E154 2019-02-13 05:36:30 20.8 19 22.3
0039E154 2019-02-13 05:05:05 20.9 19 22
0039E154 2019-02-13 04:33:41 20.9 19 21.9
0039E154 2019-02-13 04:02:16 20.9 19 21.7
0039E154 2019-02-13 03:30:52 20.9 19 21.7
0039E154 2019-02-13 02:59:28 20.9 19 21.4
0039E154 2019-02-13 02:28:04 20.9 18 21.2
0039E154 2019-02-13 01:56:41 20.9 18 20.9
0039E154 2019-02-13 01:25:19 20.9 18 20.8
0039E154 2019-02-13 00:53:53 20.9 18 20.5
0039E154 2019-02-13 00:22:29 21 19 20.5
0039E154 2019-02-12 23:51:05 21 19 20.5
0039E154 2019-02-12 23:19:42 21 19 20.5
0039E154 2019-02-12 22:48:18 21 19 20.4
0039E154 2019-02-12 22:16:54 21.1 19 20.6
0039E154 2019-02-12 21:45:31 21.2 20 20.8
0039E154 2019-02-12 21:14:06 21.3 21 20.7
0039E154 2019-02-12 20:42:43 21.4 21 20.7
0039E154 2019-02-12 20:11:19 21.4 20 20.5
0039E154 2019-02-12 19:39:55 21.5 20 18.6
0039E154 2019-02-12 19:08:31 21.6 20 18.4
0039E154 2019-02-12 18:37:08 21.6 19 18.1
0039E154 2019-02-12 18:05:01 21.7 19 18.1
0039E154 2019-02-12 17:33:39 21.8 19 18.3
0039E154 2019-02-12 17:02:13 21.9 19 18.3
0039E154 2019-02-12 16:30:46 22.1 19 18.2
0039E154 2019-02-12 15:59:21 22.1 19 18.1
0039E154 2019-02-12 15:27:56 22.1 19 18.1
0039E154 2019-02-12 14:56:32 22 19 17.9
0039E154 2019-02-12 14:25:09 21.7 19 18.1
0039E154 2019-02-12 13:53:46 21.4 19 18
0039E154 2019-02-12 13:22:22 21.3 19 17.9
0039E154 2019-02-12 12:51:01 21.4 20 17.8
0039E154 2019-02-12 12:19:35 21.3 20 18.1
0039E154 2019-02-12 11:48:12 21.3 20 18.1
0039E154 2019-02-12 11:16:47 21.3 20 18.2
0039E154 2019-02-12 10:45:24 21.2 21 18.5
0039E154 2019-02-12 10:13:58 21.1 22 18.4
0039E154 2019-02-12 09:42:34 21.1 22 18.2
0039E154 2019-02-12 09:11:09 21 23 17.5
0039E154 2019-02-12 08:39:44 20.9 23 17.2
0039E154 2019-02-12 08:08:19 20.8 24 17.4
0039E154 2019-02-12 07:36:55 20.9 25 17.3
0039E154 2019-02-12 07:05:33 20.9 26 17.3
0039E154 2019-02-12 06:34:06 20.9 26 17.7
0039E154 2019-02-12 06:02:42 20.9 26 18.1
0039E154 2019-02-12 05:31:17 20.9 26 18.1
0039E154 2019-02-12 04:59:51 20.9 27 18.2
0039E154 2019-02-12 04:28:24 20.9 27 18.1
0039E154 2019-02-12 03:57:01 20.9 27 18.1
0039E154 2019-02-12 03:25:31 20.9 27 18.3
0039E154 2019-02-12 02:22:43 20.9 27 18.4
0039E154 2019-02-12 01:51:19 21 27 18.6
0039E154 2019-02-12 01:19:52 21 27 18.4
0039E154 2019-02-12 00:48:25 21 27 18.5
0039E154 2019-02-12 00:17:00 21 27 18.7
0039E154 2019-02-11 23:45:37 21.1 27 19
0039E154 2019-02-11 23:14:10 21.1 27 18.9
0039E154 2019-02-11 22:42:45 21.2 27 19.1
0039E154 2019-02-11 22:11:20 21.2 27 19.4
0039E154 2019-02-11 21:39:53 21.3 27 19
0039E154 2019-02-11 21:08:30 21.4 27 18.8
0039E154 2019-02-11 20:37:06 21.4 27 19.3
0039E154 2019-02-11 20:05:37 21.5 27 19.3
0039E154 2019-02-11 19:34:11 21.6 27 19
0039E154 2019-02-11 19:02:46 21.8 27 19
0039E154 2019-02-11 18:31:20 21.9 27 19.4
0039E154 2019-02-11 17:59:54 22.1 28 20.5
0039E154 2019-02-11 17:28:27 22.2 28 19.2
0039E154 2019-02-11 16:57:01 22.3 28 11.5
0039E154 2019-02-11 16:25:33 22.2 33 0